Location: B�rgermoos
(47.6500°N, 9.0667°E)
Time: 15:47:45
(UTC+00:00)

CENTAUR R/B - Pass Details

Date: 18 September 2020
Orbit: 755 x 1433 km, 63.4° (Epoch: 02 October)

Event Time Altitude Azimuth Distance (km) Brightness Sun altitude
Rises 21:14:35 0° 316° (NW) 4,208 6.9 -34.1°
Reaches altitude 10° 21:17:29 10° 309° (NW) 3,320 6.0 -34.4°
Maximum altitude 21:24:52 38° 245° (WSW) 2,007 4.1 -35.1°
Enters shadow 21:25:43 37° 233° (SW) 2,041 4.0 -35.2°
